Jackson, TN

8:48 AM CDT on June 26, 2017 (GMT -0500)
McKellar-Sipes Regional

Weather History for KMKL - October, 2011

Change the Weather History Date:

Saturday, October 29, 2011

  Actual Average Record
Temperature  
Mean Temperature 44 °F 56 °F  
Max Temperature 61 °F 69 °F 87 °F (2016)
Min Temperature 27 °F 44 °F 25 °F (1952)
Degree Days  
Heating Degree Days 21 9  
Month to date heating degree days 193 168  
Since 1 July heating degree days 210 194  
Cooling Degree Days 0 1  
Month to date cooling degree days 26 47  
Year to date cooling degree days 1924 1690  
Moisture  
Dew Point 31 °F    
Average Humidity 63    
Maximum Humidity 100    
Minimum Humidity 25    
Precipitation  
Precipitation 0.00 in 0.12 in 0.37 in (1982)
Month to date precipitation 0.95 3.52  
Year to date precipitation 43.00 42.77  
Snow  
Snow 0.00 in 0.00 in 0.00 in (2002)
Month to date snowfall 0.0 0.0  
Since 1 July snowfall 0.0 0.0  
Since 1 September snowfall 0.0 0.0  
Snow Depth -    
Sea Level Pressure  
Sea Level Pressure 30.18 in    
Wind  
Wind Speed 3 mph (NW)    
Max Wind Speed 15 mph    
Max Gust Speed 20 mph    
Visibility 9 miles    
Events      
T = Trace of Precipitation, MM = Missing Value Source: NWS Daily Summary

Daily Weather History Graph

Daily Weather History Graph

Search for Another Location

Airport or City:

Trip Planner

Search our weather history database for the weather conditions in past years. The results will help you decide how hot, cold, wet, or windy it might be!

Date:

Astronomy

Oct. 29, 2011 Rise Set
Actual Time 7:14 AM CDT 6:03 PM CDT
Civil Twilight 6:48 AM CDT 6:30 PM CDT
Nautical Twilight 6:18 AM CDT 6:59 PM CDT
Astronomical Twilight 5:48 AM CDT 7:29 PM CDT
Moon 10:29 AM CDT (10/29) 8:33 PM CDT (10/29)
Length of Visible Light 11h 41m
Length of Day
10h 49m
Waxing Crescent, 12% of the Moon is Illuminated
Oct 29
Waxing Crescent
Nov 2
First Quarter
Nov 10
Full
Nov 18
Last Quarter
Nov 25
New

Hourly Weather History & Observations

Time (CDT) Temp. Windchill Dew Point Humidity Pressure Visibility Wind Dir Wind Speed Gust Speed Precip Events Conditions
12:53 AM 32.0 °F - 30.9 °F 96% 30.18 in 7.0 mi Calm Calm - N/A   Clear
1:53 AM 30.2 °F - 30.2 °F 100% 30.18 in 7.0 mi Calm Calm - N/A   Clear
2:53 AM 32.0 °F - 30.2 °F 93% 30.18 in 8.0 mi Calm Calm - N/A   Clear
3:53 AM 30.9 °F - 28.9 °F 92% 30.17 in 9.0 mi Calm Calm - N/A   Clear
4:53 AM 30.2 °F - 28.4 °F 93% 30.15 in 6.0 mi Calm Calm - N/A   Clear
5:53 AM 28.0 °F - 27.0 °F 96% 30.16 in 10.0 mi Calm Calm - N/A   Clear
6:53 AM 28.0 °F - 27.0 °F 96% 30.17 in 8.0 mi Calm Calm - N/A   Clear
7:53 AM 30.9 °F 26.2 °F 30.0 °F 96% 30.19 in 8.0 mi SSW 4.6 mph - N/A   Clear
8:53 AM 42.1 °F - 37.9 °F 85% 30.22 in 10.0 mi Calm Calm - N/A   Clear
9:53 AM 46.9 °F - 37.9 °F 71% 30.22 in 10.0 mi West 5.8 mph - N/A   Clear
10:53 AM 52.0 °F - 37.9 °F 59% 30.23 in 10.0 mi Variable 5.8 mph - N/A   Clear
11:53 AM 57.2 °F - 35.6 °F 44% 30.22 in 10.0 mi NNW 9.2 mph - N/A   Clear
12:53 PM 60.1 °F - 28.9 °F 31% 30.21 in 10.0 mi NW 11.5 mph 18.4 mph N/A   Clear
1:53 PM 60.1 °F - 26.1 °F 27% 30.18 in 10.0 mi NNW 12.7 mph - N/A   Clear
2:53 PM 61.0 °F - 24.1 °F 24% 30.16 in 10.0 mi North 8.1 mph - N/A   Clear
3:53 PM 61.0 °F - 28.0 °F 29% 30.16 in 10.0 mi North 10.4 mph 19.6 mph N/A   Clear
4:53 PM 59.0 °F - 26.1 °F 28% 30.15 in 10.0 mi NNW 9.2 mph - N/A   Clear
5:53 PM 55.4 °F - 28.4 °F 36% 30.16 in 10.0 mi NNW 3.5 mph - N/A   Clear
6:53 PM 46.0 °F - 32.0 °F 58% 30.17 in 10.0 mi Calm Calm - N/A   Clear
7:53 PM 42.1 °F - 32.0 °F 67% 30.18 in 10.0 mi Calm Calm - N/A   Clear
8:53 PM 39.0 °F - 33.1 °F 79% 30.18 in 10.0 mi Calm Calm - N/A   Clear
9:53 PM 37.9 °F - 33.1 °F 83% 30.18 in 10.0 mi Calm Calm - N/A   Clear
10:53 PM 34.0 °F - 30.0 °F 85% 30.17 in 10.0 mi Calm Calm - N/A   Clear
11:53 PM 33.1 °F - 32.0 °F 96% 30.19 in 10.0 mi Calm Calm - N/A   Clear